[[{"header":{"parameterUnit":"m.s-1","parameterCategory":2,"la1":30.2992,"la2":30.254,"lo1":-89.0895,"lo2":-89.0443,"dy":0.0025,"dx":0.0025,"nx":19,"ny":19,"refTime":"2026-03-13T09:00:00:Z","depth":"0","parameterNumber":2,"parameterNumberName":"U-component_of_CURRENTS"},"data":[0,0,0,0.1331,0.1332,0.1377,0.1378,0.142,0.1421,0,0,0,0,0,0,0,0,0,0,0,0.1311,0.1311,0.1331,0.1333,0.1377,0.1378,0.142,0.1421,0,0,0,0,0,0,0,0,0,0,0,0.1311,0.1311,0.1312,0.1333,0.1377,0.1378,0.142,0.1388,0,0,0,0,0,0,0,0,0,0,0.1346,0.1328,0.1311,0.1312,0.1333,0.1377,0.1378,0.1387,0.139,0.1398,0,0.1407,0,0.142,0.1424,0.1424,0,0,0,0.1326,0.1326,0.1343,0.1312,0.1334,0.1377,0.1355,0.1389,0.1393,0.1402,0.1408,0.141,0.1421,0.1424,0.1424,0.1494,0.1494,0,0,0.1324,0.1314,0.134,0.1346,0.1349,0.1354,0.1357,0.1391,0.1393,0.1408,0.1411,0.1421,0.1424,0.1425,0.1493,0.1494,0,0,0,0.1321,0.1312,0.1328,0.1343,0.1356,0.1356,0.1359,0.1391,0.1399,0.1411,0.1422,0.1425,0.1425,0.1493,0.1494,0.1526,0,0,0,0.1319,0.1311,0.1327,0.1321,0.1355,0.1376,0.1358,0.1396,0.1401,0.1422,0.1425,0.1426,0.1492,0.1493,0.1524,0.1541,0,0,0,0.1308,0.131,0.1317,0.132,0.1344,0.1376,0.1385,0.1397,0.1407,0.1424,0.1426,0.1492,0.1493,0.1522,0.1538,0.1617,0,0,0,0.1293,0.1305,0.1317,0.1336,0.1344,0.1385,0.1385,0.1411,0.1425,0.1425,0.1493,0.1494,0.1521,0.1536,0.1615,0.1682,0.17,0,0,0.13,0.1305,0.1319,0.1331,0.1368,0.1378,0.1425,0.1441,0.1444,0.1478,0.148,0.1524,0.1538,0.1617,0.1739,0.1755,0,0,0,0.1316,0.1324,0.1338,0.1363,0.1394,0.1431,0.1451,0.1469,0.1504,0.146,0.1536,0.1543,0.1592,0.1627,0.164,0.1708,0.1498,0.1498,0.1498,0.1301,0.1327,0.1352,0.1389,0.1419,0.1471,0.1509,0.154,0.1532,0.1557,0.1577,0.1669,0.1706,0.1717,0.1784,0.1585,0.1585,0.1585,0.1586,0.1309,0.1321,0.1363,0.1395,0.1444,0.1487,0.1565,0.1582,0.1665,0.1622,0.1669,0.1668,0.1733,0.18,0.1588,0.1587,0.1587,0.1587,0.1587,0.1288,0.1298,0.1324,0.1373,0.143,0.1494,0.159,0.1646,0.1696,0.1744,0.1815,0.1814,0.187,0.1779,0.178,0.178,0.178,0.1781,0.1781,0.1247,0.1278,0.1294,0.1351,0.1384,0.1467,0.1604,0.1699,0.1833,0.1868,0.1869,0.192,0.1729,0.1717,0.1788,0.1786,0.1785,0.1785,0.1784,0.1214,0.1226,0.1249,0.1276,0.1361,0.1428,0.1583,0.1811,0.1928,0.2013,0.211,0.1951,0.1957,0.1947,0.1941,0.2065,0.2065,0.2065,0.2065,0.1179,0.1192,0.1211,0.1243,0.1311,0.1408,0.1567,0.179,0.2081,0.2216,0.2262,0.2228,0.2213,0.2232,0.2215,0.2213,0.2404,0.2404,0.2404,0.1155,0.1169,0.1167,0.1209,0.1279,0.1382,0.1507,0.1728,0.2183,0.2422,0.2348,0.2334,0.228,0.2252,0.2272,0.2242,0.2234,0,0]},{"header":{"parameterUnit":"m.s-1","parameterCategory":2,"la1":30.2992,"la2":30.254,"lo1":-89.0895,"lo2":-89.0443,"dy":0.0025,"dx":0.0025,"nx":19,"ny":19,"refTime":"2026-03-13T09:00:00:Z","depth":"0","parameterNumber":3,"parameterNumberName":"V-component_of_CURRENTS"},"data":[0,0,0,0.002,0.002,-0.0032,-0.0032,-0.0112,-0.0113,0,0,0,0,0,0,0,0,0,0,0,0.0039,0.0039,0.002,0.0019,-0.0032,-0.0032,-0.0112,-0.0113,0,0,0,0,0,0,0,0,0,0,0,0.0039,0.0039,0.0039,0.0019,-0.0032,-0.0032,-0.0112,-0.0071,0,0,0,0,0,0,0,0,0,0,-0.002,0.0005,0.0039,0.0039,0.0019,-0.0032,-0.0032,-0.0069,-0.0074,-0.009,0,-0.0093,0,-0.0103,-0.0118,-0.0118,0,0,0,0.0012,0.0009,-0.0007,0.0039,0.0019,-0.0032,-0.0011,-0.0072,-0.0077,-0.0096,-0.0094,-0.0097,-0.0104,-0.0118,-0.0119,-0.0155,-0.0155,0,0,0.0015,0.0029,-0.0003,-0.001,0.0012,-0.0009,-0.0012,-0.0075,-0.0077,-0.0094,-0.0099,-0.0105,-0.0119,-0.0119,-0.0155,-0.0155,0,0,0,0.0028,0.0031,0.0017,-0.0007,-0.0014,-0.0011,-0.0014,-0.0074,-0.0079,-0.01,-0.0106,-0.0119,-0.012,-0.0155,-0.0155,-0.0102,0,0,0,0.0029,0.0039,0.0018,0.0026,-0.0012,-0.0042,-0.0012,-0.0075,-0.0082,-0.0106,-0.0119,-0.0121,-0.0155,-0.0155,-0.0104,-0.0055,0,0,0,0.0041,0.004,0.0036,0.0027,0.0008,-0.0041,-0.005,-0.0077,-0.0086,-0.0118,-0.0121,-0.0155,-0.0155,-0.0105,-0.0059,-0.0006,0,0,0,0.0054,0.0062,0.0037,0.0044,0.0008,-0.0006,-0.005,-0.0068,-0.009,-0.012,-0.0155,-0.0155,-0.0106,-0.0061,-0.0009,0.0111,0.0133,0,0,0.0075,0.0065,0.007,0.0046,0.005,0.0,-0.0003,-0.0053,-0.0092,-0.0138,-0.0139,-0.0103,-0.0059,-0.0007,0.0132,0.0155,0,0,0,0.0083,0.0088,0.0084,0.0079,0.0056,0.0042,-0.0012,-0.0038,-0.0079,-0.0103,-0.011,-0.0084,-0.0052,0.0013,0.003,-0.0069,-0.0153,-0.0153,-0.0153,0.0132,0.0119,0.0134,0.0117,0.0107,0.0066,0.005,0.0003,-0.0049,-0.0058,-0.0047,0.0024,0.0093,0.0107,0.0002,-0.0068,-0.0068,-0.0068,-0.0068,0.0177,0.0189,0.0176,0.0184,0.0163,0.0152,0.0104,0.0068,0.0052,-0.0006,0.0021,0.0058,0.013,0.001,-0.0064,-0.0065,-0.0065,-0.0066,-0.0066,0.0213,0.0219,0.0219,0.0236,0.0244,0.0211,0.0255,0.019,0.0124,0.0141,0.0215,0.0215,0.0119,0.0154,0.0154,0.0155,0.0155,0.0156,0.0156,0.025,0.0253,0.0281,0.0292,0.0314,0.0349,0.0343,0.0365,0.0359,0.0306,0.0307,0.014,0.0092,0.0092,0.0163,0.0162,0.0161,0.016,0.016,0.0297,0.0296,0.0346,0.0374,0.0443,0.0552,0.0544,0.0634,0.0618,0.0647,0.0375,0.0391,0.0394,0.0381,0.0388,0.0531,0.0531,0.0531,0.0531,0.0333,0.0334,0.0415,0.0482,0.0577,0.065,0.0851,0.0886,0.0717,0.0592,0.0467,0.0413,0.0402,0.0399,0.0385,0.0389,0.0529,0.0529,0.0528,0.0373,0.0392,0.0465,0.0527,0.0635,0.0794,0.1005,0.1107,0.08,0.0509,0.0303,0.0303,0.0196,0.0187,0.0157,0.0145,0.0143,0,0]}],[{"header":{"parameterUnit":"m.s-1","parameterCategory":2,"la1":30.2992,"la2":30.254,"lo1":-89.0895,"lo2":-89.0443,"dy":0.0025,"dx":0.0025,"nx":19,"ny":19,"refTime":"2026-03-13T09:00:00:Z","depth":"2","parameterNumber":2,"parameterNumberName":"U-component_of_CURRENTS"},"data":[0,0,0,0.1311,0.1313,0.1361,0.1361,0.1406,0.1407,0,0,0,0,0,0,0,0,0,0,0,0.1291,0.1291,0.1311,0.1313,0.1361,0.1361,0.1406,0.1407,0,0,0,0,0,0,0,0,0,0,0,0.1291,0.1291,0.1291,0.1313,0.1361,0.1361,0.1406,0.1372,0,0,0,0,0,0,0,0,0,0,0.1327,0.131,0.1291,0.1292,0.1313,0.1361,0.1361,0.1371,0.1375,0.1381,0,0.1392,0,0.1405,0.141,0.141,0,0,0,0.1307,0.1307,0.1324,0.1292,0.1314,0.1361,0.1338,0.1373,0.1377,0.1386,0.1392,0.1394,0.1405,0.141,0.141,0.1481,0.1482,0,0,0.1305,0.1295,0.1322,0.1327,0.133,0.1336,0.1339,0.1376,0.1378,0.1393,0.1396,0.1406,0.141,0.1411,0.1481,0.1482,0,0,0,0.1301,0.1293,0.131,0.1325,0.1338,0.1338,0.1341,0.1376,0.1384,0.1396,0.1407,0.1411,0.1411,0.1481,0.1481,0.1511,0,0,0,0.1299,0.1291,0.1308,0.1302,0.1337,0.136,0.1341,0.1381,0.1386,0.1406,0.1411,0.1412,0.148,0.1481,0.1509,0.1526,0,0,0,0.1288,0.129,0.1297,0.1302,0.1326,0.136,0.1368,0.1382,0.1392,0.141,0.1412,0.148,0.1481,0.1508,0.1523,0.1604,0,0,0,0.1273,0.1285,0.1297,0.1317,0.1326,0.1367,0.1368,0.1396,0.1412,0.1411,0.148,0.1481,0.1507,0.1522,0.1601,0.1627,0.1641,0,0,0.1279,0.1285,0.1298,0.1311,0.1347,0.136,0.1407,0.1425,0.143,0.1465,0.1467,0.151,0.1523,0.1603,0.1685,0.1698,0,0,0,0.1295,0.1304,0.1317,0.1343,0.1373,0.1411,0.1433,0.1453,0.1491,0.1447,0.1522,0.153,0.158,0.159,0.16,0.1486,0.1486,0.1486,0.1486,0.1281,0.1306,0.1331,0.1367,0.1397,0.145,0.149,0.1524,0.1518,0.1544,0.1563,0.1656,0.1665,0.1674,0.1572,0.1572,0.1572,0.1572,0.1572,0.1288,0.1299,0.1341,0.1372,0.1421,0.1465,0.1545,0.1564,0.165,0.1608,0.1656,0.1631,0.1687,0.1575,0.1574,0.1574,0.1574,0.1573,0.1573,0.1267,0.1276,0.1302,0.1351,0.1407,0.1473,0.1568,0.1627,0.168,0.1727,0.1773,0.1772,0.169,0.1764,0.1765,0.1765,0.1765,0.1766,0.1766,0.1227,0.1256,0.1273,0.1329,0.1362,0.1445,0.1583,0.1675,0.1794,0.1821,0.1821,0.1721,0.1715,0.1703,0.1773,0.1771,0.1771,0.177,0.1769,0.1193,0.1204,0.1228,0.1255,0.1339,0.1402,0.1552,0.1756,0.1872,0.1942,0.1891,0.1886,0.189,0.188,0.1873,0.1983,0.1983,0.1983,0.1983,0.1157,0.117,0.1189,0.1222,0.1288,0.138,0.1509,0.1676,0.1853,0.1902,0.1905,0.1836,0.1831,0.1826,0.1818,0.1806,0.19,0.1899,0.1899,0.1133,0.1147,0.1146,0.1187,0.1254,0.1349,0.143,0.153,0.1728,0.1888,0.1811,0.1993,0.1897,0.1887,0.1881,0.1867,0.1849,0,0]},{"header":{"parameterUnit":"m.s-1","parameterCategory":2,"la1":30.2992,"la2":30.254,"lo1":-89.0895,"lo2":-89.0443,"dy":0.0025,"dx":0.0025,"nx":19,"ny":19,"refTime":"2026-03-13T09:00:00:Z","depth":"2","parameterNumber":3,"parameterNumberName":"V-component_of_CURRENTS"},"data":[0,0,0,-0.0119,-0.012,-0.0167,-0.0167,-0.0244,-0.0245,0,0,0,0,0,0,0,0,0,0,0,-0.0101,-0.0101,-0.0119,-0.012,-0.0167,-0.0167,-0.0244,-0.0245,0,0,0,0,0,0,0,0,0,0,0,-0.0101,-0.0101,-0.0102,-0.012,-0.0167,-0.0167,-0.0244,-0.0206,0,0,0,0,0,0,0,0,0,0,-0.0159,-0.0134,-0.0101,-0.0102,-0.012,-0.0166,-0.0167,-0.0204,-0.0209,-0.0226,0,-0.0227,0,-0.0236,-0.025,-0.025,0,0,0,-0.0127,-0.0131,-0.0146,-0.0102,-0.012,-0.0166,-0.0148,-0.0207,-0.0212,-0.0232,-0.0228,-0.0231,-0.0237,-0.025,-0.0251,-0.028,-0.028,0,0,-0.0125,-0.0111,-0.0142,-0.0148,-0.0126,-0.0146,-0.0149,-0.0209,-0.0211,-0.0229,-0.0233,-0.0239,-0.0251,-0.0252,-0.028,-0.028,0,0,0,-0.0112,-0.0109,-0.0122,-0.0145,-0.0151,-0.0147,-0.0151,-0.0208,-0.0213,-0.0234,-0.0239,-0.0251,-0.0252,-0.0281,-0.028,-0.0223,0,0,0,-0.0111,-0.0101,-0.0121,-0.0113,-0.015,-0.0177,-0.0148,-0.0209,-0.0216,-0.0239,-0.0251,-0.0253,-0.0281,-0.028,-0.0225,-0.0178,0,0,0,-0.01,-0.01,-0.0104,-0.0112,-0.013,-0.0176,-0.0185,-0.021,-0.0219,-0.025,-0.0253,-0.0281,-0.028,-0.0227,-0.0182,-0.0137,0,0,0,-0.0088,-0.0078,-0.0103,-0.0094,-0.0129,-0.014,-0.0184,-0.02,-0.0221,-0.0252,-0.0281,-0.028,-0.0227,-0.0185,-0.014,-0.0081,-0.0063,0,0,-0.0066,-0.0075,-0.007,-0.0093,-0.0086,-0.0134,-0.0133,-0.0181,-0.0221,-0.0264,-0.0265,-0.0224,-0.0182,-0.0138,-0.0049,-0.0032,0,0,0,-0.0057,-0.005,-0.0053,-0.0056,-0.0077,-0.0087,-0.0138,-0.0163,-0.0199,-0.0231,-0.0229,-0.0204,-0.0178,-0.0149,-0.0135,-0.0278,-0.0278,-0.0278,-0.0278,-0.0007,-0.0018,-0.0001,-0.0015,-0.0022,-0.0059,-0.0072,-0.0115,-0.0167,-0.0171,-0.0162,-0.0092,-0.0061,-0.005,-0.018,-0.0179,-0.0179,-0.0179,-0.0179,0.0039,0.0051,0.0042,0.0053,0.0037,0.0031,-0.0012,-0.0045,-0.0059,-0.0115,-0.0093,-0.0095,-0.0032,-0.0174,-0.0175,-0.0176,-0.0176,-0.0177,-0.0177,0.0075,0.0081,0.0084,0.0106,0.0118,0.0091,0.013,0.0074,0.0012,0.0028,0.0055,0.0055,-0.0041,0.0037,0.0038,0.0038,0.0038,0.0039,0.0039,0.011,0.0115,0.0145,0.0161,0.0184,0.0218,0.0213,0.0226,0.0201,0.0142,0.0142,-0.0019,-0.0026,-0.0028,0.0045,0.0044,0.0043,0.0043,0.0042,0.0154,0.0155,0.0205,0.0233,0.0301,0.0391,0.0382,0.0429,0.041,0.0415,0.0202,0.0196,0.0188,0.0177,0.0179,0.0303,0.0303,0.0303,0.0303,0.0187,0.0189,0.0267,0.0331,0.0417,0.0475,0.062,0.0612,0.0501,0.0389,0.0385,0.034,0.0328,0.0324,0.0309,0.0312,0.0471,0.0471,0.0471,0.0223,0.0241,0.0309,0.0369,0.0466,0.0592,0.0735,0.0754,0.0571,0.0474,0.0381,0.032,0.024,0.0227,0.0205,0.0188,0.0186,0,0]}],[{"header":{"parameterUnit":"m.s-1","parameterCategory":2,"la1":30.2992,"la2":30.254,"lo1":-89.0895,"lo2":-89.0443,"dy":0.0025,"dx":0.0025,"nx":19,"ny":19,"refTime":"2026-03-13T09:00:00:Z","depth":"4","parameterNumber":2,"parameterNumberName":"U-component_of_CURRENTS"},"data":[0,0,0,0.0948,0.095,0.1051,0.1051,0.1123,0.1123,0,0,0,0,0,0,0,0,0,0,0,0.0917,0.0917,0.0948,0.095,0.1051,0.1051,0.1122,0.1123,0,0,0,0,0,0,0,0,0,0,0,0.0916,0.0917,0.0918,0.0951,0.105,0.1051,0.1122,0.106,0,0,0,0,0,0,0,0,0,0,0.097,0.0952,0.0917,0.0918,0.0951,0.105,0.1051,0.1058,0.1064,0.1061,0,0.1085,0,0.1104,0.1127,0.1127,0,0,0,0.0949,0.0947,0.0972,0.0918,0.0952,0.105,0.1005,0.1062,0.1069,0.1069,0.1086,0.1089,0.1105,0.1127,0.1127,0.1199,0.1199,0,0,0.0944,0.0935,0.0967,0.0976,0.0988,0.1002,0.1008,0.1067,0.1078,0.1087,0.1091,0.1106,0.1127,0.1128,0.1199,0.1199,0,0,0,0.0928,0.0931,0.0955,0.0973,0.0995,0.1005,0.1012,0.1076,0.1084,0.1092,0.1107,0.1128,0.1128,0.1198,0.1199,0.1228,0,0,0,0.0925,0.0922,0.0953,0.0949,0.0994,0.1045,0.102,0.108,0.1087,0.1107,0.1128,0.1129,0.1198,0.1199,0.1226,0.1236,0,0,0,0.091,0.092,0.0935,0.0948,0.0992,0.1045,0.1057,0.1082,0.1096,0.1127,0.1129,0.1198,0.1198,0.1224,0.1234,0.128,0,0,0,0.0893,0.0913,0.0935,0.0966,0.0991,0.1045,0.1057,0.1106,0.1135,0.1128,0.1198,0.1199,0.1224,0.1232,0.1278,0.1141,0,0,0,0.0902,0.0915,0.0932,0.0953,0.0998,0.1031,0.1086,0.1131,0.1145,0.1173,0.1176,0.1226,0.1233,0.128,0.1196,0,0,0,0,0.0923,0.0937,0.0955,0.0992,0.1033,0.1083,0.1128,0.1153,0.1206,0.1168,0.1237,0.1241,0.1269,0.1184,0.1203,0.1203,0.1203,0.1203,0.1203,0.0913,0.094,0.097,0.1012,0.1054,0.1124,0.117,0.1214,0.1223,0.1256,0.1272,0.1337,0.1248,0.1282,0.1283,0.1283,0.1283,0.1283,0.1283,0.0915,0.0926,0.0979,0.102,0.1078,0.1134,0.1216,0.1247,0.1324,0.1308,0.1335,0.1229,0.1286,0.1286,0.1285,0.1285,0.1285,0.1284,0.1284,0.0889,0.0897,0.0939,0.1,0.107,0.1148,0.1223,0.1294,0.135,0.1387,0.1318,0.1367,0.1357,0.1414,0.1415,0.1415,0.1415,0.1415,0.1416,0.0836,0.0876,0.0907,0.0979,0.1023,0.1106,0.1236,0.1293,0.1373,0.134,0.1409,0.1382,0.1377,0.1365,0.142,0.1419,0.1418,0.1418,0.1418,0.0787,0.0814,0.085,0.0891,0.0981,0.1027,0.1168,0.1262,0.1319,0.1332,0.1319,0.1322,0.1304,0.1302,0.1286,0.1319,0.1318,0.1316,0,0.0744,0.0762,0.0802,0.0841,0.0885,0.0976,0.1029,0.1123,0.1212,0.1172,0.1309,0.1289,0.1292,0.1265,0.1261,0.1238,0,0,0,0.0711,0.0732,0.074,0.0793,0.0832,0.0923,0.1037,0.1049,0.1192,0.1224,0.1277,0.1288,0.1359,0.1431,0.1413,0.1407,0.1387,0,0]},{"header":{"parameterUnit":"m.s-1","parameterCategory":2,"la1":30.2992,"la2":30.254,"lo1":-89.0895,"lo2":-89.0443,"dy":0.0025,"dx":0.0025,"nx":19,"ny":19,"refTime":"2026-03-13T09:00:00:Z","depth":"4","parameterNumber":3,"parameterNumberName":"V-component_of_CURRENTS"},"data":[0,0,0,-0.0165,-0.0165,-0.0213,-0.0214,-0.0279,-0.028,0,0,0,0,0,0,0,0,0,0,0,-0.0149,-0.0149,-0.0164,-0.0165,-0.0213,-0.0214,-0.0279,-0.028,0,0,0,0,0,0,0,0,0,0,0,-0.0149,-0.0149,-0.0149,-0.0166,-0.0213,-0.0214,-0.0279,-0.0244,0,0,0,0,0,0,0,0,0,0,-0.0197,-0.0178,-0.0149,-0.0149,-0.0166,-0.0213,-0.0214,-0.0242,-0.0246,-0.0257,0,-0.0261,0,-0.0269,-0.0284,-0.0284,0,0,0,-0.0172,-0.0175,-0.0188,-0.0149,-0.0166,-0.0213,-0.0194,-0.0244,-0.0248,-0.0262,-0.0262,-0.0264,-0.027,-0.0284,-0.0285,-0.029,-0.0289,0,0,-0.017,-0.016,-0.0184,-0.019,-0.0175,-0.0192,-0.0195,-0.0247,-0.025,-0.0262,-0.0266,-0.0271,-0.0285,-0.0285,-0.029,-0.029,0,0,0,-0.0157,-0.0158,-0.0169,-0.0187,-0.0194,-0.0193,-0.0197,-0.0248,-0.0251,-0.0267,-0.0272,-0.0285,-0.0286,-0.029,-0.029,-0.0232,0,0,0,-0.0156,-0.015,-0.0168,-0.0163,-0.0193,-0.0221,-0.0196,-0.0248,-0.0254,-0.0272,-0.0285,-0.0286,-0.0291,-0.029,-0.0235,-0.02,0,0,0,-0.0147,-0.0149,-0.0153,-0.0162,-0.018,-0.022,-0.0227,-0.0249,-0.0257,-0.0284,-0.0286,-0.0291,-0.029,-0.0237,-0.0204,-0.0195,0,0,0,-0.0138,-0.013,-0.0153,-0.0145,-0.0179,-0.0182,-0.0227,-0.024,-0.0259,-0.0285,-0.0291,-0.029,-0.0238,-0.0207,-0.0197,-0.0167,0,0,0,-0.0119,-0.0128,-0.0121,-0.0142,-0.013,-0.0176,-0.0163,-0.0212,-0.0249,-0.0277,-0.0277,-0.0234,-0.0205,-0.0195,-0.0115,0,0,0,0,-0.0109,-0.0103,-0.0104,-0.0104,-0.0117,-0.012,-0.0166,-0.0183,-0.0211,-0.0255,-0.0232,-0.0215,-0.0211,-0.02,-0.0285,-0.0286,-0.0286,-0.0286,-0.0286,-0.0073,-0.0076,-0.0058,-0.006,-0.006,-0.0084,-0.009,-0.0122,-0.0169,-0.0167,-0.0167,-0.0116,-0.0101,-0.0171,-0.0171,-0.0171,-0.017,-0.017,-0.017,-0.0035,-0.0022,-0.0019,-0.0003,-0.0005,-0.0001,-0.0021,-0.005,-0.0065,-0.0105,-0.0106,-0.0137,-0.0164,-0.0165,-0.0166,-0.0167,-0.0167,-0.0168,-0.0168,-0.0011,-0.0004,0.0005,0.0033,0.0056,0.0046,0.0072,0.004,-0.0009,-0.0002,-0.0022,-0.008,-0.0088,-0.0018,-0.0018,-0.0017,-0.0017,-0.0017,-0.0017,0.0007,0.0019,0.0042,0.007,0.0091,0.0119,0.0122,0.0115,0.0068,0.0055,0.0006,-0.0065,-0.007,-0.008,-0.0014,-0.0014,-0.0015,-0.0015,-0.0015,0.003,0.0033,0.0073,0.0096,0.0153,0.0179,0.0185,0.0178,0.0172,0.0146,0.0076,0.007,0.0048,0.0041,0.0033,0.0136,0.0137,0.0137,0,0.0043,0.0048,0.01,0.0145,0.0201,0.0216,0.0246,0.0235,0.0176,0.0177,0.014,0.006,0.0056,0.0029,0.0023,0.0015,0,0,0,0.0059,0.0072,0.0111,0.0156,0.0218,0.0249,0.0257,0.0252,0.0195,0.0196,0.0153,0.0149,0.0056,-0.0004,-0.0051,-0.0057,-0.0076,0,0]}]]